Atlanta, GA

3:32 AM EST on December 11, 2019 (GMT -0500)
The Hartsfield Atlanta International

Weather History for KATL - October, 2019

Change the Weather History Date:

Tuesday, October 15, 2019

  Actual Average Record
Temperature  
Mean Temperature 67 °F 64 °F  
Max Temperature 73 °F 73 °F 86 °F (1935)
Min Temperature 62 °F 54 °F 36 °F (1978)
Degree Days  
Heating Degree Days 0 3  
Month to date heating degree days 33  
Since 1 July heating degree days 44  
Cooling Degree Days 2 2  
Month to date cooling degree days 46  
Year to date cooling degree days 1851  
Growing Degree Days 17 (Base 50)    
Moisture  
Dew Point 60 °F    
Average Humidity 78    
Maximum Humidity 93    
Minimum Humidity 58    
Precipitation  
Precipitation 0.38 in 0.11 in 3.19 in (1914)
Month to date precipitation 1.82  
Year to date precipitation 40.12  
Sea Level Pressure  
Sea Level Pressure 30.03 in    
Wind  
Wind Speed 4 mph ()    
Max Wind Speed 10 mph    
Max Gust Speed -    
Visibility 7.2 miles    
Events Rain    
T = Trace of Precipitation, MM = Missing Value Source: Averaged Metar Reports

Daily Weather History Graph

Daily Weather History Graph

Search for Another Location

Airport or City:

Astronomy

Oct. 15, 2019 Rise Set
Actual Time 7:42 AM EDT 7:04 PM EDT
Civil Twilight 7:17 AM EDT 7:29 PM EDT
Nautical Twilight 6:48 AM EDT 7:58 PM EDT
Astronomical Twilight 6:19 AM EDT 8:26 PM EDT
Moon 8:27 PM EDT (10/15) 9:09 AM EDT (10/15)
Length of Visible Light 12h 12m
Length of Day
11h 21m
Full, 97% of the Moon is Illuminated
Oct 15
Full
Oct 21
Last Quarter
Oct 27
New
Nov 4
First Quarter
Nov 12
Full

Hourly Weather History & Observations

Time (EDT) Temp. Dew Point Humidity Pressure Visibility Wind Dir Wind Speed Gust Speed Precip Events Conditions
12:52 AM 69.1 °F 54.0 °F 58% 30.08 in 10.0 mi Calm Calm - N/A   Overcast
1:52 AM 68.0 °F 55.0 °F 63% 30.07 in 10.0 mi Calm Calm - N/A   Overcast
2:52 AM 68.0 °F 55.9 °F 65% 30.07 in 10.0 mi Calm Calm - N/A   Overcast
3:52 AM 66.9 °F 55.9 °F 68% 30.07 in 10.0 mi Calm Calm - N/A   Overcast
4:52 AM 68.0 °F 55.0 °F 63% 30.07 in 10.0 mi Calm Calm - N/A   Overcast
5:52 AM 68.0 °F 55.9 °F 65% 30.08 in 10.0 mi South 3.5 mph - N/A   Overcast
6:52 AM 66.0 °F 57.0 °F 73% 30.08 in 10.0 mi East 6.9 mph - 0.00 in Rain Light Rain
7:52 AM 66.0 °F 57.0 °F 73% 30.08 in 10.0 mi ESE 3.5 mph - 0.00 in   Overcast
8:52 AM 66.0 °F 55.9 °F 70% 30.08 in 10.0 mi ESE 4.6 mph - 0.00 in   Overcast
9:17 AM 63.0 °F 55.9 °F 78% 30.11 in 2.0 mi East 6.9 mph - 0.08 in Rain Light Rain
9:34 AM 62.1 °F 57.9 °F 86% 30.11 in 4.0 mi East 6.9 mph - 0.19 in Rain Light Rain
9:52 AM 62.1 °F 57.9 °F 86% 30.09 in 6.0 mi ESE 5.8 mph - 0.21 in Rain Light Rain
10:06 AM 63.0 °F 59.0 °F 87% 30.10 in 10.0 mi SE 3.5 mph - 0.00 in Rain Light Rain
10:52 AM 64.9 °F 61.0 °F 87% 30.08 in 9.0 mi East 8.1 mph - 0.02 in Rain Light Rain
11:15 AM 64.9 °F 60.1 °F 84% 30.10 in 10.0 mi ENE 8.1 mph - 0.00 in   Mostly Cloudy
11:50 AM 66.2 °F 60.8 °F 83% 30.10 in 10.0 mi East 5.8 mph - 0.00 in   Overcast
11:52 AM 66.0 °F 62.1 °F 87% 30.08 in 10.0 mi East 5.8 mph - 0.00 in   Overcast
12:52 PM 68.0 °F 61.0 °F 78% 30.08 in 10.0 mi ESE 5.8 mph - N/A   Overcast
1:52 PM 70.0 °F 60.1 °F 71% 30.05 in 10.0 mi SE 5.8 mph - 0.00 in   Overcast
2:52 PM 72.0 °F 57.9 °F 61% 30.02 in 10.0 mi SE 6.9 mph - N/A   Overcast
3:52 PM 72.0 °F 60.1 °F 66% 29.99 in 10.0 mi SSE 8.1 mph - N/A   Overcast
4:52 PM 71.1 °F 61.0 °F 70% 29.98 in 10.0 mi SE 8.1 mph - N/A   Overcast
5:19 PM 70.0 °F 62.1 °F 76% 29.99 in 8.0 mi SE 9.2 mph - 0.00 in Rain Light Rain
5:52 PM 69.1 °F 63.0 °F 81% 29.98 in 7.0 mi ESE 4.6 mph - 0.01 in Rain Light Rain
6:52 PM 66.9 °F 62.1 °F 84% 29.97 in 6.0 mi East 8.1 mph - 0.06 in Rain Rain
7:34 PM 66.9 °F 64.0 °F 90% 29.96 in 3.0 mi East 9.2 mph - 0.05 in Rain Light Rain
7:52 PM 66.9 °F 64.9 °F 93% 29.93 in 1.5 mi ESE 10.4 mph - 0.06 in Rain Light Rain
8:52 PM 66.0 °F 64.0 °F 93% 29.93 in 1.5 mi ESE 10.4 mph - 0.00 in Rain Light Rain
8:55 PM 66.0 °F 64.0 °F 93% 29.94 in 0.5 mi ESE 9.2 mph - 0.00 in Rain Light Rain
9:52 PM 66.0 °F 63.0 °F 90% 29.95 in 0.5 mi East 6.9 mph - 0.00 in Rain Light Rain
10:52 PM 64.9 °F 63.0 °F 93% 29.93 in 0.5 mi East 10.4 mph - 0.01 in Rain Light Rain
11:52 PM 64.9 °F 63.0 °F 93% 29.94 in 0.5 mi East 4.6 mph - 0.01 in Rain Light Rain